Location: Newark
(43.6583°N, 1.6617°E)
Time: 22:37:24
(UTC+00:00)

Tiros 1 - Pass Details

Date: 30 August 2019
Orbit: 631 x 664 km, 48.4° (Epoch: 17 September)

Event Time Altitude Azimuth Distance (km) Brightness Sun altitude
Rises 22:02:36 0° 258° (WSW) 2,914 10.8 -31.7°
Enters shadow 22:04:56 10° 262° (W) 2,009 9.9 -32.0°
Reaches altitude 10° 22:04:56 10° 262° (W) 2,006 - -32.0°
Maximum altitude 22:09:31 62° 343° (NNW) 709 - -32.4°
Drops below altitude 10° 22:14:06 10° 65° (ENE) 2,014 - -32.8°
Sets 22:16:27 0° 69° (ENE) 2,926 - -33.0°
